Wind_Speed
14 3 10 24 13 11 10 10 9 8 7 7 7 7 4 6 7 8 8 8 7 7 7 7 7 8 7 6 6 6 6 6 6
7 11 14 22 11 8 10 8 7 7 7 3 6 6 6 6 6 7 8 7 7 6 7 7 6 6 5 4 4 4 4 4 4
8 11 9 13 6 8 11 9 7 4 3 5 6 6 6 7 6 6 7 8 7 7 7 7 6 5 4 2 2 2 2 2 3
5 6 9 16 8 3 4 5 6 2 2 4 6 8 7 8 7 7 7 8 9 8 5 8 5 4 3 2 1 1 2 2 2
5 6 6 8 9 10 8 12 7 5 4 5 6 9 9 8 8 9 9 8 7 7 10 5 1 4 4 3 2 2 3 3 2
9 9 9 10 10 10 11 11 9 7 6 6 7 9 11 11 10 10 10 8 8 8 6 6 8 4 3 3 3 3 2 3 5
12 11 10 10 9 9 9 9 8 8 7 7 9 10 11 12 12 11 12 11 10 8 9 10 7 6 8 7 5 4 5 6 7
12 11 10 9 10 9 9 8 8 7 8 9 10 11 12 13 13 14 14 12 13 12 11 11 9 8 7 7 6 7 8 8 7
12 11 10 9 9 9 9 9 8 9 9 10 10 10 12 12 13 14 15 15 12 13 13 13 11 10 9 9 8 8 8 9 8
11 9 9 10 9 10 10 10 10 11 11 12 11 11 11 13 14 14 16 20 18 15 12 14 13 11 11 11 10 9 8 7 7
10 9 9 10 9 10 11 10 12 11 11 12 12 12 12 14 14 15 17 20 22 20 17 13 12 10 11 10 10 9 9 9 8
10 8 8 9 9 10 8 10 11 11 11 11 11 11 12 13 13 14 15 17 21 23 23 18 15 13 11 10 10 11 10 10 11
9 8 8 9 11 10 9 10 10 10 9 9 10 10 11 13 12 13 15 17 18 20 23 25 24 21 19 13 12 12 12 11 11
10 10 10 11 12 11 10 10 10 10 9 9 10 11 11 12 13 13 14 16 17 21 22 24 24 24 25 24 20 17 13 13 13
13 13 13 13 12 12 12 12 12 11 11 11 11 11 13 13 14 14 15 16 18 20 21 22 23 25 26 28 28 24 21 15 12
16 16 16 16 16 16 16 16 16 15 15 14 13 14 15 15 15 15 16 17 18 19 19 21 22 23 25 27 30 33 32 29 26
19 19 20 20 20 20 20 20 20 20 20 19 18 17 18 19 18 18 18 19 20 20 20 21 23 24 26 28 29 31 34 35 35
22 23 24 25 25 25 25 26 25 24 25 24 23 23 23 21 22 23 23 23 23 23 23 23 24 25 26 27 28 30 32 33 34
25 26 27 27 28 29 30 30 30 29 28 29 29 29 30 28 27 26 27 27 26 26 26 26 27 27 28 29 30 32 32 32 33
24 24 24 24 26 27 29 30 32 33 33 32 31 32 35 35 35 33 30 29 29 29 30 30 31 32 32 32 32 32 33 34 34
Wind_Direction
15 227 196 136 99 102 93 87 87 97 105 112 134 165 163 157 152 145 136 140 145 138 138 132 133 127 125 114 97 86 76 70 66
67 36 189 120 93 102 82 76 77 86 106 150 147 157 151 157 150 135 141 145 151 150 145 138 142 136 135 123 100 80 66 55 48
85 64 68 147 81 97 59 28 26 29 92 169 180 167 163 157 148 148 150 153 156 163 155 153 153 153 152 138 96 50 37 29 18
90 99 102 157 177 74 43 337 325 284 228 200 196 187 177 171 163 161 163 171 166 152 165 161 158 172 184 196 229 311 332 343 356
204 198 210 207 225 196 179 259 272 265 225 210 210 200 197 188 179 178 175 180 192 194 211 230 220 199 216 244 263 294 318 320 332
242 241 235 242 238 239 238 255 272 253 229 214 210 210 207 204 199 193 192 196 209 210 200 203 202 187 217 232 257 276 288 304 314
248 248 248 249 255 252 250 251 245 245 229 215 213 214 212 212 208 208 205 205 206 198 191 206 213 210 244 257 251 254 277 293 299
254 254 254 256 261 264 259 253 246 234 233 227 220 216 215 213 211 209 208 213 216 223 227 225 231 230 232 226 248 276 284 288 292
252 250 251 254 252 256 256 252 245 241 228 230 225 222 219 219 217 215 212 213 211 216 226 226 231 234 241 256 264 268 279 288 283
249 255 257 256 247 244 237 234 238 240 237 236 230 226 218 224 225 219 220 217 215 216 222 225 230 234 244 255 264 270 267 272 278
244 245 252 252 246 248 245 236 237 238 242 244 244 241 235 230 229 224 225 223 221 221 227 222 226 238 246 250 256 256 268 269 265
242 244 251 259 260 259 253 250 248 244 241 242 245 246 245 243 238 238 234 229 227 227 230 231 232 234 234 250 252 254 261 269 265
239 242 240 249 253 257 257 255 262 262 256 254 250 243 243 248 246 243 239 236 233 235 237 238 240 239 232 229 232 247 257 262 266
238 244 241 238 247 250 256 253 257 259 257 254 256 256 256 256 256 251 247 241 238 239 239 241 242 240 234 229 231 234 237 253 261
248 249 253 255 255 258 259 261 258 260 262 259 257 258 261 256 251 249 247 244 242 241 243 245 245 244 243 239 234 236 239 239 248
249 252 255 257 259 259 258 260 263 263 261 261 263 261 262 262 260 257 257 256 253 253 252 249 250 251 248 246 244 243 243 247 250
252 255 257 259 261 263 265 265 264 265 265 265 261 257 260 261 264 262 259 256 257 257 257 255 253 252 252 250 249 248 248 249 252
260 259 260 261 263 265 266 268 268 270 272 269 268 265 258 256 257 257 259 260 261 262 261 260 259 256 254 256 255 252 251 249 250
267 267 266 264 264 265 267 268 270 271 270 274 275 273 270 265 255 254 259 260 261 262 264 264 263 262 260 258 256 255 254 252 250
277 276 275 274 272 271 270 271 272 273 274 273 272 274 276 275 272 265 255 254 260 262 263 262 262 260 259 258 258 257 257 257 256
Height
3182 3180 3180 3182 3184 3187 3188 3189 3190 3191 3191 3192 3194 3195 3195 3197 3197 3198 3198 3199 3201 3201 3202 3202 3204 3204 3204 3205 3205 3205 3205 3205 3205
3180 3182 3181 3181 3186 3188 3187 3189 3190 3191 3193 3193 3194 3195 3195 3197 3197 3198 3199 3200 3201 3202 3203 3203 3204 3205 3205 3205 3206 3206 3206 3205 3206
3181 3181 3182 3184 3186 3188 3187 3187 3189 3190 3192 3194 3193 3194 3196 3197 3197 3198 3200 3200 3201 3202 3202 3203 3204 3205 3206 3206 3206 3206 3206 3206 3206
3184 3185 3185 3188 3189 3188 3188 3188 3189 3191 3192 3193 3193 3194 3195 3196 3197 3198 3200 3200 3201 3201 3201 3202 3204 3204 3205 3206 3206 3206 3206 3206 3206
3185 3185 3186 3188 3189 3191 3191 3189 3189 3189 3190 3190 3191 3193 3194 3195 3197 3198 3199 3201 3201 3201 3202 3200 3203 3204 3205 3205 3206 3206 3206 3206 3206
3182 3183 3184 3185 3186 3186 3187 3186 3186 3187 3187 3188 3190 3191 3193 3194 3196 3197 3199 3200 3201 3201 3201 3202 3203 3202 3204 3205 3205 3206 3205 3206 3205
3180 3181 3181 3182 3182 3182 3183 3184 3185 3185 3185 3187 3188 3190 3191 3192 3193 3196 3197 3199 3200 3200 3200 3201 3201 3202 3203 3204 3205 3205 3205 3205 3205
3178 3179 3179 3179 3179 3179 3180 3181 3182 3183 3183 3184 3185 3188 3189 3190 3192 3193 3195 3197 3198 3199 3200 3200 3201 3202 3203 3203 3204 3205 3204 3204 3204
3176 3177 3178 3177 3177 3177 3178 3179 3180 3181 3181 3182 3183 3184 3186 3188 3189 3190 3192 3194 3195 3197 3197 3199 3200 3201 3201 3202 3202 3201 3202 3202 3202
3173 3174 3175 3176 3176 3176 3176 3177 3178 3179 3180 3180 3180 3182 3184 3185 3186 3188 3190 3192 3193 3194 3195 3196 3197 3198 3199 3200 3200 3200 3200 3200 3200
3170 3172 3173 3173 3174 3174 3175 3175 3176 3177 3178 3178 3179 3180 3182 3184 3184 3185 3186 3188 3190 3191 3193 3194 3196 3196 3197 3197 3198 3198 3198 3198 3198
3168 3169 3169 3170 3171 3171 3173 3174 3174 3174 3175 3176 3177 3178 3180 3181 3182 3183 3183 3185 3186 3188 3190 3191 3193 3194 3194 3195 3195 3196 3196 3196 3196
3165 3166 3167 3168 3169 3170 3170 3171 3171 3172 3173 3174 3175 3176 3177 3177 3178 3180 3181 3182 3183 3184 3186 3187 3188 3190 3191 3191 3191 3192 3193 3193 3193
3162 3163 3165 3166 3167 3167 3168 3168 3169 3170 3171 3172 3173 3174 3174 3175 3175 3176 3177 3179 3180 3180 3181 3182 3183 3185 3186 3187 3187 3187 3187 3189 3189
3159 3160 3161 3162 3163 3164 3164 3165 3166 3167 3168 3168 3170 3171 3171 3172 3173 3173 3174 3175 3175 3175 3176 3177 3178 3180 3181 3182 3183 3184 3185 3185 3185
3155 3156 3157 3158 3159 3160 3161 3161 3161 3162 3163 3165 3166 3166 3167 3167 3168 3169 3170 3170 3170 3171 3172 3173 3173 3175 3176 3177 3177 3178 3180 3180 3181
3150 3151 3152 3153 3154 3155 3155 3156 3157 3157 3158 3160 3161 3163 3163 3162 3163 3164 3164 3164 3165 3166 3167 3168 3169 3169 3170 3170 3171 3172 3173 3174 3174
3145 3146 3147 3148 3148 3149 3149 3150 3151 3152 3152 3154 3155 3156 3157 3159 3158 3159 3159 3160 3161 3161 3162 3163 3163 3163 3163 3163 3164 3165 3165 3166 3167
3139 3139 3140 3141 3142 3143 3143 3143 3144 3146 3147 3147 3147 3148 3148 3150 3153 3153 3153 3154 3154 3155 3156 3156 3156 3156 3156 3157 3157 3156 3157 3158 3159
3133 3134 3134 3135 3135 3136 3137 3137 3138 3138 3139 3141 3141 3141 3139 3140 3141 3143 3146 3147 3147 3148 3148 3148 3148 3147 3147 3148 3149 3149 3150 3151 3152